| time (UTC) | temp F | wind direction | speed MPH | gust MPH | rain 1hr in | rain 24hr in | rain mn in | humidity % | barometer mb |
| 20260508200109 | 61 | 0 | 2.0 | 11.0 | 0.00 | 0.00 | 0.00 | 59 | 1021.6 |
| 20260508195553 | 61 | 248 | 3.0 | 12.0 | 0.00 | 0.00 | 0.00 | 59 | 1021.6 |
| 20260508195053 | 60 | 298 | 3.0 | 12.0 | 0.00 | 0.00 | 0.00 | 61 | 1021.6 |
| 20260508194555 | 59 | 309 | 6.0 | 12.0 | 0.00 | 0.00 | 0.00 | 59 | 1021.8 |
| 20260508194053 | 61 | 240 | 4.0 | 9.0 | 0.00 | 0.00 | 0.00 | 57 | 1021.7 |
| 20260508193553 | 61 | 90 | 1.0 | 9.0 | 0.00 | 0.00 | 0.00 | 58 | 1021.7 |
| 20260508193140 | 60 | 184 | 4.0 | 10.0 | 0.00 | 0.00 | 0.00 | 59 | 1021.7 |
| 20260508192553 | 60 | 202 | 3.0 | 11.0 | 0.00 | 0.00 | 0.00 | 59 | 1021.7 |
| 20260508192054 | 60 | 202 | 3.0 | 11.0 | 0.00 | 0.00 | 0.00 | 59 | 1021.7 |
| 20260508191557 | 59 | 329 | 6.0 | 11.0 | 0.00 | 0.00 | 0.00 | 61 | 1021.6 |
| 20260508191054 | 60 | 171 | 3.0 | 13.0 | 0.00 | 0.00 | 0.00 | 59 | 1021.8 |
| 20260508190553 | 60 | 175 | 3.0 | 13.0 | 0.00 | 0.00 | 0.00 | 59 | 1021.8 |
| 20260508190056 | 58 | 259 | 6.0 | 13.0 | 0.00 | 0.00 | 0.00 | 63 | 1021.8 |
| 20260508185557 | 57 | 166 | 4.0 | 10.0 | 0.00 | 0.00 | 0.00 | 61 | 1021.8 |
| 20260508185054 | 58 | 239 | 4.0 | 10.0 | 0.00 | 0.00 | 0.00 | 63 | 1021.8 |
| 20260508184605 | 57 | 246 | 4.0 | 10.0 | 0.00 | 0.00 | 0.00 | 66 | 1021.8 |
| 20260508184053 | 57 | 206 | 4.0 | 9.0 | 0.00 | 0.00 | 0.00 | 67 | 1021.8 |
| 20260508183553 | 57 | 227 | 2.0 | 8.0 | 0.00 | 0.00 | 0.00 | 67 | 1021.8 |
| 20260508183123 | 56 | 205 | 3.0 | 8.0 | 0.00 | 0.00 | 0.00 | 67 | 1021.7 |
| 20260508182632 | 56 | 244 | 4.0 | 8.0 | 0.00 | 0.00 | 0.00 | 66 | 1021.8 |
| 20260508182101 | 57 | 284 | 3.0 | 9.0 | 0.00 | 0.00 | 0.00 | 65 | 1021.8 |
| 20260508181607 | 57 | 297 | 2.0 | 9.0 | 0.00 | 0.00 | 0.00 | 64 | 1021.7 |
| 20260508181058 | 58 | 225 | 4.0 | 7.0 | 0.00 | 0.00 | 0.00 | 66 | 1021.6 |
| 20260508180557 | 57 | 285 | 2.0 | 8.0 | 0.00 | 0.00 | 0.00 | 64 | 1021.6 |
| 20260508180057 | 57 | 235 | 3.0 | 11.0 | 0.00 | 0.00 | 0.00 | 67 | 1021.6 |
| 20260508175557 | 57 | 167 | 3.0 | 11.0 | 0.00 | 0.00 | 0.00 | 67 | 1021.6 |
| 20260508175058 | 56 | 261 | 2.0 | 11.0 | 0.00 | 0.00 | 0.00 | 68 | 1021.5 |
| 20260508174604 | 56 | 239 | 4.0 | 11.0 | 0.00 | 0.00 | 0.00 | 68 | 1021.5 |
| 20260508174058 | 56 | 275 | 4.0 | 11.0 | 0.00 | 0.00 | 0.00 | 68 | 1021.5 |
| 20260508173554 | 57 | 0 | 1.0 | 10.0 | 0.00 | 0.00 | 0.00 | 68 | 1021.4 |
| 20260508173056 | 57 | 258 | 2.0 | 10.0 | 0.00 | 0.00 | 0.00 | 70 | 1021.4 |
| 20260508172557 | 56 | 288 | 4.0 | 10.0 | 0.00 | 0.00 | 0.00 | 70 | 1021.3 |
| 20260508172058 | 56 | 254 | 1.0 | 5.0 | 0.00 | 0.00 | 0.00 | 71 | 1021.1 |
| 20260508171557 | 55 | 294 | 2.0 | 7.0 | 0.00 | 0.00 | 0.00 | 72 | 1021.1 |
| 20260508171057 | 55 | 273 | 1.0 | 7.0 | 0.00 | 0.00 | 0.00 | 73 | 1021.1 |
| 20260508170557 | 55 | 158 | 2.0 | 7.0 | 0.00 | 0.00 | 0.00 | 72 | 1021.0 |
| 20260508170100 | 54 | 284 | 3.0 | 7.0 | 0.00 | 0.00 | 0.00 | 73 | 1020.9 |
| 20260508165554 | 55 | 176 | 2.0 | 7.0 | 0.00 | 0.00 | 0.00 | 73 | 1020.9 |
| 20260508165057 | 54 | 258 | 1.0 | 4.0 | 0.00 | 0.00 | 0.00 | 74 | 1020.9 |
| 20260508164559 | 54 | 0 | 1.0 | 4.0 | 0.00 | 0.00 | 0.00 | 74 | 1020.6 |
| 20260508164057 | 54 | 232 | 1.0 | 7.0 | 0.00 | 0.00 | 0.00 | 74 | 1020.5 |
| 20260508163559 | 54 | 244 | 1.0 | 7.0 | 0.00 | 0.00 | 0.00 | 76 | 1020.5 |
| 20260508163056 | 53 | 178 | 2.0 | 6.0 | 0.00 | 0.00 | 0.00 | 75 | 1020.6 |
| 20260508162558 | 53 | 197 | 2.0 | 6.0 | 0.00 | 0.00 | 0.00 | 76 | 1020.6 |
| 20260508162058 | 53 | 182 | 1.0 | 8.0 | 0.00 | 0.00 | 0.00 | 75 | 1020.6 |
| 20260508161558 | 53 | 264 | 2.0 | 8.0 | 0.00 | 0.00 | 0.00 | 76 | 1020.7 |
| 20260508161058 | 53 | 268 | 3.0 | 8.0 | 0.00 | 0.00 | 0.00 | 76 | 1020.4 |
| 20260508160558 | 53 | 117 | 2.0 | 7.0 | 0.00 | 0.00 | 0.00 | 76 | 1020.4 |
| 20260508160057 | 53 | 144 | 1.0 | 7.0 | 0.00 | 0.00 | 0.00 | 76 | 1020.3 |
| 20260508155601 | 52 | 155 | 3.0 | 8.0 | 0.00 | 0.00 | 0.00 | 77 | 1020.4 |
| 20260508155057 | 52 | 166 | 3.0 | 8.0 | 0.00 | 0.00 | 0.00 | 77 | 1020.3 |
| 20260508154614 | 52 | 222 | 2.0 | 7.0 | 0.00 | 0.00 | 0.00 | 77 | 1020.5 |
| 20260508154057 | 52 | 167 | 3.0 | 7.0 | 0.00 | 0.00 | 0.00 | 78 | 1020.4 |
| 20260508153558 | 51 | 209 | 3.0 | 8.0 | 0.00 | 0.00 | 0.00 | 78 | 1020.3 |
| 20260508153056 | 51 | 188 | 2.0 | 8.0 | 0.00 | 0.00 | 0.00 | 78 | 1020.3 |
| 20260508152558 | 52 | 135 | 4.0 | 8.0 | 0.00 | 0.00 | 0.00 | 78 | 1020.4 |
| 20260508152058 | 52 | 257 | 3.0 | 7.0 | 0.00 | 0.00 | 0.00 | 78 | 1020.5 |
| 20260508151600 | 52 | 126 | 3.0 | 5.0 | 0.00 | 0.00 | 0.00 | 78 | 1020.5 |
| 20260508151058 | 52 | 0 | 1.0 | 5.0 | 0.00 | 0.00 | 0.00 | 78 | 1020.5 |
| 20260508150559 | 51 | 183 | 2.0 | 6.0 | 0.00 | 0.00 | 0.00 | 79 | 1020.5 |
| 20260508150058 | 51 | 135 | 2.0 | 6.0 | 0.00 | 0.00 | 0.00 | 79 | 1020.5 |
| 20260508145557 | 51 | 0 | 1.0 | 5.0 | 0.00 | 0.00 | 0.00 | 79 | 1020.7 |
| 20260508145055 | 51 | 184 | 1.0 | 4.0 | 0.00 | 0.00 | 0.00 | 79 | 1020.6 |
| 20260508144607 | 51 | 0 | 1.0 | 5.0 | 0.00 | 0.00 | 0.00 | 79 | 1020.7 |
| 20260508144054 | 51 | 142 | 1.0 | 5.0 | 0.00 | 0.00 | 0.00 | 79 | 1020.7 |
| 20260508143558 | 50 | 198 | 1.0 | 7.0 | 0.00 | 0.00 | 0.00 | 81 | 1020.6 |
| 20260508143106 | 50 | 142 | 2.0 | 8.0 | 0.00 | 0.00 | 0.00 | 80 | 1020.6 |
| 20260508142555 | 50 | 207 | 2.0 | 8.0 | 0.00 | 0.00 | 0.00 | 81 | 1020.7 |
| 20260508142057 | 50 | 220 | 1.0 | 6.0 | 0.00 | 0.00 | 0.00 | 81 | 1020.5 |
| 20260508141604 | 50 | 0 | 3.0 | 6.0 | 0.00 | 0.00 | 0.00 | 82 | 1020.5 |
| 20260508141056 | 49 | 176 | 2.0 | 6.0 | 0.00 | 0.00 | 0.00 | 82 | 1020.3 |
| 20260508140559 | 49 | 202 | 1.0 | 7.0 | 0.00 | 0.00 | 0.00 | 83 | 1020.2 |
| 20260508140056 | 49 | 281 | 2.0 | 7.0 | 0.00 | 0.00 | 0.00 | 83 | 1020.2 |
| 20260508135556 | 49 | 186 | 1.0 | 7.0 | 0.00 | 0.00 | 0.00 | 83 | 1020.1 |
| 20260508135058 | 49 | 175 | 2.0 | 7.0 | 0.00 | 0.00 | 0.00 | 83 | 1019.9 |
| 20260508134622 | 49 | 175 | 2.0 | 6.0 | 0.00 | 0.00 | 0.00 | 82 | 1019.8 |
| 20260508134056 | 49 | 0 | 2.0 | 6.0 | 0.00 | 0.00 | 0.00 | 82 | 1019.8 |
| 20260508133557 | 49 | 191 | 0.0 | 6.0 | 0.00 | 0.00 | 0.00 | 81 | 1019.6 |
| 20260508133100 | 49 | 0 | 2.0 | 6.0 | 0.00 | 0.00 | 0.00 | 81 | 1019.6 |
| 20260508132558 | 49 | 0 | 0.0 | 2.0 | 0.00 | 0.00 | 0.00 | 80 | 1019.4 |
| 20260508132057 | 49 | 181 | 0.0 | 5.0 | 0.00 | 0.00 | 0.00 | 79 | 1019.4 |
| 20260508131556 | 49 | 249 | 0.0 | 5.0 | 0.00 | 0.00 | 0.00 | 79 | 1019.3 |
| 20260508131059 | 49 | 253 | 1.0 | 4.0 | 0.00 | 0.00 | 0.00 | 79 | 1019.1 |
| 20260508130557 | 49 | 167 | 0.0 | 5.0 | 0.00 | 0.00 | 0.00 | 79 | 1019.0 |
| 20260508130057 | 49 | 210 | 1.0 | 5.0 | 0.00 | 0.00 | 0.00 | 79 | 1018.8 |
| 20260508125558 | 49 | 167 | 1.0 | 4.0 | 0.00 | 0.00 | 0.00 | 79 | 1018.6 |
| 20260508125055 | 50 | 153 | 0.0 | 4.0 | 0.00 | 0.00 | 0.00 | 79 | 1018.5 |
| 20260508124603 | 50 | 0 | 0.0 | 4.0 | 0.00 | 0.00 | 0.00 | 79 | 1018.6 |
| 20260508124057 | 50 | 188 | 0.0 | 2.0 | 0.00 | 0.00 | 0.00 | 79 | 1018.5 |
| 20260508123555 | 50 | 132 | 0.0 | 2.0 | 0.00 | 0.00 | 0.00 | 79 | 1018.3 |
| 20260508123057 | 50 | 0 | 0.0 | 2.0 | 0.00 | 0.00 | 0.00 | 79 | 1018.4 |
| 20260508122555 | 50 | 132 | 1.0 | 2.0 | 0.00 | 0.00 | 0.00 | 79 | 1018.4 |
| 20260508122054 | 50 | 127 | 1.0 | 2.0 | 0.00 | 0.00 | 0.00 | 79 | 1018.4 |
| 20260508121554 | 51 | 0 | 0.0 | 2.0 | 0.00 | 0.00 | 0.00 | 78 | 1018.4 |
| 20260508121055 | 51 | 155 | 0.0 | 3.0 | 0.00 | 0.00 | 0.00 | 78 | 1018.3 |
| 20260508120554 | 51 | 155 | 0.0 | 4.0 | 0.00 | 0.00 | 0.00 | 78 | 1018.4 |
| 20260508120055 | 51 | 163 | 0.0 | 4.0 | 0.00 | 0.00 | 0.00 | 77 | 1018.3 |
| 20260508115554 | 51 | 185 | 1.0 | 3.0 | 0.00 | 0.00 | 0.00 | 78 | 1018.4 |
| 20260508115057 | 51 | 185 | 1.0 | 3.0 | 0.00 | 0.00 | 0.00 | 78 | 1018.3 |
| 20260508114557 | 51 | 185 | 0.0 | 3.0 | 0.00 | 0.00 | 0.00 | 78 | 1018.2 |
| 20260508114055 | 51 | 185 | 0.0 | 4.0 | 0.00 | 0.00 | 0.00 | 78 | 1018.1 |
| 20260508113555 | 51 | 185 | 0.0 | 5.0 | 0.00 | 0.00 | 0.00 | 79 | 1018.1 |
| 20260508113056 | 51 | 185 | 1.0 | 5.0 | 0.00 | 0.00 | 0.00 | 79 | 1017.9 |
| 20260508112557 | 51 | 0 | 0.0 | 7.0 | 0.00 | 0.00 | 0.00 | 79 | 1017.9 |
| 20260508112056 | 51 | 0 | 1.0 | 7.0 | 0.00 | 0.00 | 0.00 | 78 | 1017.7 |
| 20260508111557 | 51 | 209 | 3.0 | 8.0 | 0.00 | 0.00 | 0.00 | 78 | 1017.7 |
| 20260508111054 | 51 | 164 | 3.0 | 8.0 | 0.00 | 0.00 | 0.00 | 78 | 1017.6 |
| 20260508110555 | 51 | 165 | 2.0 | 6.0 | 0.00 | 0.00 | 0.00 | 78 | 1017.4 |
| 20260508110057 | 52 | 159 | 2.0 | 7.0 | 0.00 | 0.00 | 0.00 | 78 | 1017.2 |
| 20260508105600 | 52 | 191 | 4.0 | 7.0 | 0.00 | 0.00 | 0.00 | 78 | 1017.2 |
| 20260508105055 | 52 | 165 | 2.0 | 6.0 | 0.00 | 0.00 | 0.00 | 78 | 1017.2 |
| 20260508104553 | 52 | 177 | 2.0 | 6.0 | 0.00 | 0.00 | 0.00 | 78 | 1017.2 |
| 20260508104054 | 52 | 192 | 3.0 | 5.0 | 0.00 | 0.00 | 0.00 | 79 | 1017.0 |
| 20260508103555 | 52 | 160 | 1.0 | 5.0 | 0.00 | 0.00 | 0.00 | 80 | 1017.0 |
| 20260508103100 | 52 | 185 | 2.0 | 4.0 | 0.00 | 0.00 | 0.00 | 80 | 1017.0 |
| 20260508102555 | 52 | 0 | 1.0 | 5.0 | 0.00 | 0.00 | 0.00 | 80 | 1017.1 |
| 20260508102055 | 52 | 0 | 0.0 | 5.0 | 0.00 | 0.00 | 0.00 | 80 | 1017.0 |
| 20260508101558 | 52 | 0 | 0.0 | 4.0 | 0.00 | 0.00 | 0.00 | 80 | 1017.0 |
| 20260508101055 | 52 | 0 | 0.0 | 4.0 | 0.00 | 0.00 | 0.00 | 80 | 1017.0 |
| 20260508100554 | 52 | 176 | 1.0 | 4.0 | 0.00 | 0.00 | 0.00 | 80 | 1017.0 |
| 20260508100109 | 52 | 0 | 1.0 | 4.0 | 0.00 | 0.00 | 0.00 | 80 | 1017.0 |
| 20260508095555 | 52 | 166 | 0.0 | 2.0 | 0.00 | 0.00 | 0.00 | 80 | 1016.9 |
| 20260508095055 | 52 | 146 | 0.0 | 2.0 | 0.00 | 0.00 | 0.00 | 80 | 1016.8 |
| 20260508094605 | 52 | 0 | 0.0 | 3.0 | 0.00 | 0.00 | 0.00 | 80 | 1016.9 |
| 20260508094054 | 52 | 0 | 0.0 | 3.0 | 0.00 | 0.00 | 0.00 | 80 | 1016.8 |
| 20260508093555 | 52 | 146 | 0.0 | 2.0 | 0.00 | 0.00 | 0.00 | 79 | 1016.8 |
| 20260508093056 | 53 | 0 | 0.0 | 1.0 | 0.00 | 0.00 | 0.00 | 79 | 1016.8 |
| 20260508092602 | 53 | 0 | 0.0 | 2.0 | 0.00 | 0.00 | 0.00 | 79 | 1016.7 |
| 20260508092055 | 53 | 0 | 0.0 | 2.0 | 0.00 | 0.00 | 0.00 | 79 | 1016.8 |
| 20260508091603 | 53 | 5 | 0.0 | 2.0 | 0.00 | 0.00 | 0.00 | 78 | 1016.8 |
| 20260508091055 | 53 | 5 | 0.0 | 4.0 | 0.00 | 0.00 | 0.00 | 78 | 1016.7 |
| 20260508090555 | 53 | 0 | 0.0 | 4.0 | 0.00 | 0.00 | 0.00 | 78 | 1016.7 |
| 20260508090114 | 53 | 0 | 0.0 | 2.0 | 0.00 | 0.00 | 0.00 | 78 | 1016.7 |
| 20260508085553 | 53 | 0 | 0.0 | 2.0 | 0.00 | 0.00 | 0.00 | 77 | 1016.6 |
| 20260508085055 | 53 | 5 | 0.0 | 2.0 | 0.00 | 0.00 | 0.00 | 77 | 1016.6 |
| 20260508084555 | 53 | 0 | 0.0 | 2.0 | 0.00 | 0.00 | 0.00 | 76 | 1016.5 |
| 20260508084056 | 53 | 0 | 0.0 | 2.0 | 0.00 | 0.00 | 0.00 | 76 | 1016.5 |
| 20260508083555 | 54 | 5 | 0.0 | 2.0 | 0.00 | 0.00 | 0.00 | 74 | 1016.4 |
| 20260508083053 | 54 | 5 | 0.0 | 1.0 | 0.00 | 0.00 | 0.00 | 73 | 1016.5 |
| 20260508082555 | 54 | 0 | 0.0 | 1.0 | 0.00 | 0.00 | 0.00 | 73 | 1016.4 |
| 20260508082056 | 53 | 0 | 0.0 | 0.0 | 0.00 | 0.00 | 0.00 | 72 | 1016.4 |
| 20260508081605 | 54 | 0 | 0.0 | 0.0 | 0.00 | 0.00 | 0.00 | 72 | 1016.4 |
| 20260508081055 | 54 | 0 | 0.0 | 2.0 | 0.00 | 0.00 | 0.00 | 71 | 1016.4 |
| 20260508080555 | 54 | 0 | 0.0 | 2.0 | 0.00 | 0.00 | 0.00 | 70 | 1016.4 |
| 20260508080101 | 54 | 5 | 0.0 | 2.0 | 0.00 | 0.00 | 0.00 | 70 | 1016.4 |
| 20260508075557 | 54 | 0 | 0.0 | 1.0 | 0.00 | 0.00 | 0.00 | 70 | 1016.3 |
| 20260508075059 | 55 | 0 | 0.0 | 1.0 | 0.00 | 0.00 | 0.00 | 70 | 1016.2 |
| 20260508074558 | 54 | 5 | 0.0 | 2.0 | 0.00 | 0.00 | 0.00 | 71 | 1016.3 |
| 20260508074056 | 54 | 0 | 0.0 | 2.0 | 0.00 | 0.00 | 0.00 | 72 | 1016.2 |
| 20260508073556 | 55 | 0 | 0.0 | 1.0 | 0.00 | 0.00 | 0.00 | 71 | 1016.3 |
| 20260508073111 | 55 | 0 | 0.0 | 1.0 | 0.00 | 0.00 | 0.00 | 70 | 1016.3 |
| 20260508072554 | 55 | 0 | 0.0 | 1.0 | 0.00 | 0.00 | 0.00 | 69 | 1016.3 |
| 20260508072055 | 55 | 0 | 0.0 | 2.0 | 0.00 | 0.00 | 0.00 | 69 | 1016.2 |
| 20260508071600 | 55 | 0 | 0.0 | 2.0 | 0.00 | 0.00 | 0.00 | 69 | 1016.2 |
| 20260508071054 | 56 | 0 | 0.0 | 2.0 | 0.00 | 0.00 | 0.00 | 67 | 1016.2 |
| 20260508070554 | 56 | 0 | 0.0 | 0.0 | 0.00 | 0.00 | 0.00 | 68 | 1016.2 |
| 20260508065553 | 56 | 0 | 0.0 | 1.0 | 0.00 | 0.00 | 0.00 | 68 | 1016.3 |
| 20260508065054 | 56 | 0 | 0.0 | 1.0 | 0.00 | 0.00 | 0.00 | 69 | 1016.3 |
| 20260508064617 | 56 | 0 | 0.0 | 0.0 | 0.00 | 0.00 | 0.00 | 69 | 1016.3 |
| 20260508064053 | 56 | 0 | 0.0 | 0.0 | 0.00 | 0.00 | 0.00 | 69 | 1016.3 |
| 20260508063555 | 56 | 0 | 0.0 | 1.0 | 0.00 | 0.00 | 0.00 | 69 | 1016.2 |
| 20260508063109 | 56 | 0 | 0.0 | 1.0 | 0.00 | 0.00 | 0.00 | 69 | 1016.3 |
| 20260508062557 | 57 | 0 | 0.0 | 0.0 | 0.00 | 0.00 | 0.00 | 68 | 1016.3 |
| 20260508062054 | 57 | 0 | 0.0 | 0.0 | 0.00 | 0.00 | 0.00 | 67 | 1016.3 |
| 20260508061607 | 58 | 0 | 0.0 | 0.0 | 0.00 | 0.00 | 0.00 | 66 | 1016.3 |
| 20260508061118 | 58 | 0 | 0.0 | 0.0 | 0.00 | 0.00 | 0.00 | 65 | 1016.2 |
| 20260508060554 | 58 | 0 | 0.0 | 1.0 | 0.00 | 0.00 | 0.00 | 64 | 1016.2 |
| 20260508060105 | 58 | 0 | 0.0 | 1.0 | 0.00 | 0.00 | 0.00 | 65 | 1016.3 |
| 20260508055554 | 59 | 0 | 0.0 | 1.0 | 0.00 | 0.00 | 0.00 | 64 | 1016.2 |
| 20260508055054 | 59 | 0 | 0.0 | 2.0 | 0.00 | 0.00 | 0.00 | 64 | 1016.3 |
| 20260508054554 | 59 | 0 | 0.0 | 2.0 | 0.00 | 0.00 | 0.00 | 64 | 1016.1 |
| 20260508054057 | 59 | 0 | 0.0 | 2.0 | 0.00 | 0.00 | 0.00 | 63 | 1016.2 |
| 20260508053555 | 60 | 5 | 1.0 | 2.0 | 0.00 | 0.00 | 0.00 | 62 | 1016.1 |
| 20260508053058 | 60 | 0 | 0.0 | 2.0 | 0.00 | 0.00 | 0.00 | 62 | 1016.1 |
| 20260508052555 | 60 | 0 | 0.0 | 2.0 | 0.00 | 0.00 | 0.00 | 61 | 1016.1 |
| 20260508052054 | 60 | 0 | 0.0 | 2.0 | 0.00 | 0.00 | 0.00 | 61 | 1016.2 |
| 20260508051609 | 60 | 5 | 0.0 | 2.0 | 0.00 | 0.00 | 0.00 | 61 | 1016.1 |
| 20260508051054 | 60 | 0 | 0.0 | 2.0 | 0.00 | 0.00 | 0.00 | 61 | 1016.2 |
| 20260508050556 | 60 | 0 | 0.0 | 0.0 | 0.00 | 0.00 | 0.00 | 60 | 1016.1 |
| 20260508050056 | 61 | 0 | 0.0 | 0.0 | 0.00 | 0.00 | 0.00 | 60 | 1016.1 |
| 20260508045558 | 61 | 0 | 0.0 | 1.0 | 0.00 | 0.00 | 0.00 | 60 | 1016.1 |
| 20260508045054 | 61 | 0 | 0.0 | 1.0 | 0.00 | 0.00 | 0.00 | 60 | 1016.1 |
| 20260508044555 | 61 | 0 | 0.0 | 1.0 | 0.00 | 0.00 | 0.00 | 59 | 1016.1 |
| 20260508044054 | 61 | 0 | 0.0 | 0.0 | 0.00 | 0.00 | 0.00 | 59 | 1016.1 |
| 20260508043557 | 61 | 0 | 0.0 | 0.0 | 0.00 | 0.00 | 0.00 | 59 | 1016.0 |
| 20260508043056 | 61 | 0 | 0.0 | 0.0 | 0.00 | 0.00 | 0.00 | 59 | 1016.1 |
| 20260508042555 | 61 | 0 | 0.0 | 0.0 | 0.00 | 0.00 | 0.00 | 58 | 1016.0 |
| 20260508042054 | 61 | 0 | 0.0 | 0.0 | 0.00 | 0.00 | 0.00 | 58 | 1015.9 |
| 20260508041553 | 62 | 0 | 0.0 | 0.0 | 0.00 | 0.00 | 0.00 | 58 | 1015.9 |
| 20260508041054 | 62 | 0 | 0.0 | 0.0 | 0.00 | 0.00 | 0.00 | 57 | 1015.9 |
| 20260508040554 | 62 | 0 | 0.0 | 0.0 | 0.00 | 0.00 | 0.00 | 57 | 1015.9 |
| 20260508040100 | 62 | 0 | 0.0 | 0.0 | 0.00 | 0.00 | 0.00 | 56 | 1015.8 |
| 20260508035554 | 63 | 0 | 0.0 | 0.0 | 0.00 | 0.00 | 0.00 | 56 | 1015.8 |
| 20260508035054 | 63 | 0 | 0.0 | 0.0 | 0.00 | 0.00 | 0.00 | 55 | 1015.8 |
| 20260508034554 | 63 | 0 | 0.0 | 2.0 | 0.00 | 0.00 | 0.00 | 54 | 1015.8 |
| 20260508034053 | 64 | 0 | 0.0 | 2.0 | 0.00 | 0.00 | 0.00 | 53 | 1015.7 |
| 20260508033554 | 64 | 5 | 1.0 | 2.0 | 0.00 | 0.00 | 0.00 | 51 | 1015.7 |
| 20260508033059 | 64 | 0 | 0.0 | 0.0 | 0.00 | 0.00 | 0.00 | 51 | 1015.5 |
| 20260508032557 | 65 | 0 | 0.0 | 0.0 | 0.00 | 0.00 | 0.00 | 51 | 1015.5 |
| 20260508032054 | 65 | 0 | 0.0 | 0.0 | 0.00 | 0.00 | 0.00 | 50 | 1015.3 |
| 20260508031558 | 65 | 0 | 0.0 | 0.0 | 0.00 | 0.00 | 0.00 | 51 | 1015.3 |
| 20260508031054 | 65 | 0 | 0.0 | 0.0 | 0.00 | 0.00 | 0.00 | 49 | 1015.2 |
| 20260508030554 | 66 | 0 | 0.0 | 1.0 | 0.00 | 0.00 | 0.00 | 51 | 1015.1 |
| 20260508025559 | 67 | 0 | 0.0 | 1.0 | 0.00 | 0.00 | 0.00 | 49 | 1015.2 |
| 20260508025054 | 68 | 0 | 0.0 | 2.0 | 0.00 | 0.00 | 0.00 | 46 | 1015.2 |
| 20260508024617 | 68 | 0 | 0.0 | 2.0 | 0.00 | 0.00 | 0.00 | 47 | 1015.2 |
| 20260508024055 | 68 | 5 | 0.0 | 2.0 | 0.00 | 0.00 | 0.00 | 46 | 1015.3 |
| 20260508023555 | 69 | 5 | 0.0 | 3.0 | 0.00 | 0.00 | 0.00 | 44 | 1015.3 |
| 20260508023056 | 69 | 5 | 0.0 | 4.0 | 0.00 | 0.00 | 0.00 | 44 | 1015.3 |
| 20260508022601 | 69 | 37 | 1.0 | 5.0 | 0.00 | 0.00 | 0.00 | 44 | 1015.2 |
| 20260508022055 | 69 | 0 | 1.0 | 5.0 | 0.00 | 0.00 | 0.00 | 43 | 1015.3 |
| 20260508021605 | 69 | 42 | 1.0 | 3.0 | 0.00 | 0.00 | 0.00 | 43 | 1015.3 |
| 20260508021054 | 70 | 0 | 1.0 | 4.0 | 0.00 | 0.00 | 0.00 | 41 | 1015.2 |
| 20260508020554 | 70 | 299 | 1.0 | 4.0 | 0.00 | 0.00 | 0.00 | 41 | 1015.3 |
| 20260508020109 | 70 | 66 | 1.0 | 4.0 | 0.00 | 0.00 | 0.00 | 41 | 1015.3 |
| 20260508015554 | 70 | 203 | 0.0 | 3.0 | 0.00 | 0.00 | 0.00 | 37 | 1015.5 |
| 20260508015054 | 70 | 0 | 1.0 | 5.0 | 0.00 | 0.00 | 0.00 | 36 | 1015.4 |
| 20260508014556 | 70 | 179 | 0.0 | 5.0 | 0.00 | 0.00 | 0.00 | 36 | 1015.5 |
| 20260508014055 | 70 | 178 | 2.0 | 4.0 | 0.00 | 0.00 | 0.00 | 36 | 1015.5 |
| 20260508013555 | 71 | 190 | 0.0 | 3.0 | 0.00 | 0.00 | 0.00 | 36 | 1015.5 |
| 20260508013055 | 71 | 0 | 1.0 | 3.0 | 0.00 | 0.00 | 0.00 | 36 | 1015.6 |
| 20260508012555 | 71 | 0 | 0.0 | 4.0 | 0.00 | 0.00 | 0.00 | 36 | 1015.6 |
| 20260508012055 | 71 | 0 | 1.0 | 5.0 | 0.00 | 0.00 | 0.00 | 35 | 1015.7 |
| 20260508011605 | 71 | 126 | 1.0 | 5.0 | 0.00 | 0.00 | 0.00 | 35 | 1015.7 |
| 20260508011055 | 70 | 57 | 1.0 | 6.0 | 0.00 | 0.00 | 0.00 | 35 | 1015.7 |
| 20260508010555 | 71 | 71 | 3.0 | 6.0 | 0.00 | 0.00 | 0.00 | 34 | 1015.6 |
| 20260508010056 | 71 | 102 | 2.0 | 5.0 | 0.00 | 0.00 | 0.00 | 34 | 1015.8 |
| 20260508005556 | 71 | 0 | 1.0 | 5.0 | 0.00 | 0.00 | 0.00 | 34 | 1015.9 |
| 20260508005055 | 71 | 90 | 3.0 | 5.0 | 0.00 | 0.00 | 0.00 | 33 | 1016.0 |
| 20260508004600 | 71 | 63 | 2.0 | 4.0 | 0.00 | 0.00 | 0.00 | 33 | 1016.0 |
| 20260508004055 | 72 | 23 | 2.0 | 4.0 | 0.00 | 0.00 | 0.00 | 32 | 1016.0 |
| 20260508003554 | 73 | 0 | 0.0 | 3.0 | 0.00 | 0.00 | 0.00 | 33 | 1016.2 |
| 20260508003056 | 72 | 0 | 0.0 | 6.0 | 0.00 | 0.00 | 0.00 | 32 | 1016.2 |
| 20260508002554 | 71 | 0 | 2.0 | 6.0 | 0.00 | 0.00 | 0.00 | 32 | 1016.1 |
| 20260508002054 | 71 | 34 | 1.0 | 5.0 | 0.00 | 0.00 | 0.00 | 33 | 1016.2 |
| 20260508001557 | 71 | 47 | 0.0 | 4.0 | 0.00 | 0.00 | 0.00 | 32 | 1016.1 |
| 20260508001056 | 71 | 0 | 1.0 | 4.0 | 0.00 | 0.00 | 0.00 | 32 | 1016.1 |
| 20260508000555 | 70 | 17 | 1.0 | 4.0 | 0.00 | 0.00 | 0.00 | 33 | 1016.3 |
| 20260508000058 | 70 | 82 | 1.0 | 5.0 | 0.00 | 0.00 | 0.00 | 34 | 1016.2 |
| 20260507235554 | 71 | 144 | 1.0 | 6.0 | 0.00 | 0.00 | 0.00 | 33 | 1016.3 |
| 20260507235054 | 71 | 5 | 2.0 | 6.0 | 0.00 | 0.00 | 0.00 | 32 | 1016.3 |
| 20260507234557 | 70 | 22 | 2.0 | 8.0 | 0.00 | 0.00 | 0.00 | 35 | 1016.4 |
| 20260507234053 | 70 | 142 | 4.0 | 8.0 | 0.00 | 0.00 | 0.00 | 36 | 1016.4 |
| 20260507233554 | 71 | 360 | 1.0 | 5.0 | 0.00 | 0.00 | 0.00 | 35 | 1016.4 |
| 20260507233059 | 71 | 352 | 1.0 | 5.0 | 0.00 | 0.00 | 0.00 | 37 | 1016.5 |
| 20260507232555 | 71 | 50 | 1.0 | 5.0 | 0.00 | 0.00 | 0.00 | 37 | 1016.6 |
| 20260507232057 | 71 | 0 | 0.0 | 9.0 | 0.00 | 0.00 | 0.00 | 42 | 1016.7 |
| 20260507231559 | 71 | 0 | 3.0 | 9.0 | 0.00 | 0.00 | 0.00 | 41 | 1016.8 |
| 20260507231055 | 71 | 253 | 2.0 | 8.0 | 0.00 | 0.00 | 0.00 | 40 | 1016.7 |
| 20260507230557 | 70 | 307 | 1.0 | 8.0 | 0.00 | 0.00 | 0.00 | 43 | 1016.8 |
| 20260507230110 | 70 | 253 | 3.0 | 8.0 | 0.00 | 0.00 | 0.00 | 43 | 1016.9 |
| 20260507225554 | 70 | 182 | 2.0 | 6.0 | 0.00 | 0.00 | 0.00 | 43 | 1016.8 |
| 20260507225054 | 70 | 275 | 1.0 | 9.0 | 0.00 | 0.00 | 0.00 | 44 | 1016.9 |
| 20260507224559 | 70 | 261 | 4.0 | 9.0 | 0.00 | 0.00 | 0.00 | 43 | 1017.0 |
| 20260507224057 | 70 | 115 | 2.0 | 6.0 | 0.00 | 0.00 | 0.00 | 43 | 1017.1 |
| 20260507223555 | 71 | 101 | 0.0 | 9.0 | 0.00 | 0.00 | 0.00 | 43 | 1017.1 |
| 20260507223057 | 70 | 315 | 1.0 | 9.0 | 0.00 | 0.00 | 0.00 | 44 | 1017.1 |
| 20260507222553 | 69 | 0 | 3.0 | 8.0 | 0.00 | 0.00 | 0.00 | 45 | 1017.3 |
| 20260507222053 | 68 | 252 | 3.0 | 9.0 | 0.00 | 0.00 | 0.00 | 43 | 1017.4 |
| 20260507221556 | 69 | 250 | 3.0 | 9.0 | 0.00 | 0.00 | 0.00 | 42 | 1017.3 |
| 20260507221055 | 70 | 286 | 2.0 | 8.0 | 0.00 | 0.00 | 0.00 | 41 | 1017.4 |
| 20260507220554 | 69 | 200 | 1.0 | 8.0 | 0.00 | 0.00 | 0.00 | 42 | 1017.4 |
| 20260507220059 | 68 | 287 | 2.0 | 8.0 | 0.00 | 0.00 | 0.00 | 41 | 1017.5 |
| 20260507215558 | 68 | 260 | 3.0 | 8.0 | 0.00 | 0.00 | 0.00 | 38 | 1017.5 |
| 20260507215054 | 68 | 265 | 2.0 | 9.0 | 0.00 | 0.00 | 0.00 | 39 | 1017.6 |
| 20260507214556 | 67 | 325 | 4.0 | 10.0 | 0.00 | 0.00 | 0.00 | 42 | 1017.6 |
| 20260507214054 | 67 | 248 | 5.0 | 10.0 | 0.00 | 0.00 | 0.00 | 43 | 1017.7 |
| 20260507213554 | 68 | 307 | 4.0 | 10.0 | 0.00 | 0.00 | 0.00 | 45 | 1017.6 |
| 20260507213056 | 68 | 279 | 3.0 | 9.0 | 0.00 | 0.00 | 0.00 | 44 | 1017.6 |
| 20260507212556 | 67 | 298 | 2.0 | 5.0 | 0.00 | 0.00 | 0.00 | 45 | 1017.6 |
| 20260507212054 | 68 | 219 | 1.0 | 8.0 | 0.00 | 0.00 | 0.00 | 42 | 1017.7 |
| 20260507211601 | 68 | 269 | 3.0 | 8.0 | 0.00 | 0.00 | 0.00 | 46 | 1017.8 |
| 20260507211053 | 68 | 281 | 1.0 | 8.0 | 0.00 | 0.00 | 0.00 | 46 | 1017.8 |
| 20260507210557 | 67 | 325 | 3.0 | 8.0 | 0.00 | 0.00 | 0.00 | 45 | 1017.9 |
| 20260507210108 | 69 | 223 | 1.0 | 8.0 | 0.00 | 0.00 | 0.00 | 47 | 1018.0 |
| 20260507205555 | 67 | 326 | 2.0 | 8.0 | 0.00 | 0.00 | 0.00 | 49 | 1018.1 |
| 20260507205054 | 66 | 251 | 2.0 | 8.0 | 0.00 | 0.00 | 0.00 | 47 | 1018.2 |
| 20260507204554 | 66 | 279 | 2.0 | 8.0 | 0.00 | 0.00 | 0.00 | 48 | 1018.3 |
| 20260507204058 | 65 | 232 | 5.0 | 8.0 | 0.00 | 0.00 | 0.00 | 48 | 1018.4 |
| 20260507203554 | 67 | 286 | 2.0 | 8.0 | 0.00 | 0.00 | 0.00 | 49 | 1018.5 |
| 20260507203116 | 68 | 360 | 1.0 | 9.0 | 0.00 | 0.00 | 0.00 | 52 | 1018.4 |
| 20260507202554 | 66 | 342 | 2.0 | 9.0 | 0.00 | 0.00 | 0.00 | 51 | 1018.5 |
| 20260507202057 | 65 | 234 | 3.0 | 9.0 | 0.00 | 0.00 | 0.00 | 52 | 1018.6 |
| 20260507201557 | 66 | 24 | 2.0 | 8.0 | 0.00 | 0.00 | 0.00 | 53 | 1018.8 |
| 20260507201056 | 65 | 264 | 3.0 | 8.0 | 0.00 | 0.00 | 0.00 | 54 | 1018.7 |
| 20260507200556 | 65 | 295 | 1.0 | 6.0 | 0.00 | 0.00 | 0.00 | 55 | 1018.9 |